• In Uzbekistan
  • List of Countries
  • For 7 days
  • Water Temperature
  • Satellite Maps
  • Weather Map
  • Weather Widgets
  • user-avatar
    Login

    Hourly Weather Shkoder

    Today, 28 July, Friday

    Time Temperature Precipitation Wind Pressure Humidity
    00:00 +18°C° 0 mm 2 mps 737 mmHg 76%
    01:00 +17°C° 0 mm 2 mps 737 mmHg 76%
    02:00 +17°C° 0 mm 2 mps 737 mmHg 75%
    03:00 +17°C° 0 mm 2 mps 737 mmHg 75%
    04:00 +17°C° 0 mm 2 mps 737 mmHg 74%
    05:00 +18°C° 0 mm 2 mps 738 mmHg 69%
    06:00 +20°C° 0 mm 2 mps 738 mmHg 64%
    07:00 +23°C° 0 mm 2 mps 738 mmHg 58%
    08:00 +25°C° 0 mm 2 mps 738 mmHg 53%
    09:00 +27°C° 0 mm 1 mps 738 mmHg 47%
    10:00 +28°C° 0 mm 1 mps 738 mmHg 41%
    11:00 +29°C° 0 mm 2 mps 738 mmHg 40%
    12:00 +30°C° 0 mm 2 mps 738 mmHg 39%
    13:00 +31°C° 0 mm 3 mps 738 mmHg 38%
    14:00 +31°C° 0 mm 3 mps 738 mmHg 40%
    15:00 +30°C° 0 mm 3 mps 738 mmHg 42%
    16:00 +30°C° 0 mm 3 mps 738 mmHg 44%
    17:00 +28°C° 0 mm 2 mps 739 mmHg 51%
    18:00 +26°C° 0 mm 1 mps 739 mmHg 59%
    19:00 +24°C° 0 mm 1 mps 739 mmHg 67%
    20:00 +23°C° 0 mm 1 mps 740 mmHg 68%
    21:00 +23°C° 0 mm 1 mps 740 mmHg 68%
    22:00 +22°C° 0 mm 1 mps 741 mmHg 69%
    23:00 +22°C° 0 mm 1 mps 741 mmHg 68%

    Tomorrow, 29 July, Saturday

    Time Temperature Precipitation Wind Pressure Humidity
    00:00 +22°C° 0 mm 1 mps 741 mmHg 67%
    01:00 +22°C° 0 mm 1 mps 741 mmHg 67%
    02:00 +21°C° 0 mm 1 mps 741 mmHg 66%
    03:00 +20°C° 0 mm 2 mps 741 mmHg 66%
    04:00 +20°C° 0 mm 2 mps 741 mmHg 66%
    05:00 +23°C° 0 mm 2 mps 742 mmHg 61%
    06:00 +25°C° 0 mm 1 mps 742 mmHg 57%
    07:00 +27°C° 0 mm 1 mps 742 mmHg 52%
    08:00 +29°C° 0 mm 1 mps 742 mmHg 48%
    09:00 +31°C° 0 mm 1 mps 742 mmHg 43%
    10:00 +33°C° 0 mm 1 mps 742 mmHg 38%
    11:00 +34°C° 0 mm 2 mps 742 mmHg 37%
    12:00 +35°C° 0 mm 2 mps 742 mmHg 36%
    13:00 +36°C° 0 mm 3 mps 742 mmHg 34%
    14:00 +35°C° 0 mm 3 mps 742 mmHg 36%
    15:00 +35°C° 0 mm 3 mps 741 mmHg 38%
    16:00 +35°C° 0 mm 3 mps 741 mmHg 40%
    17:00 +31°C° 0 mm 2 mps 741 mmHg 47%
    18:00 +29°C° 0 mm 1 mps 741 mmHg 53%
    19:00 +27°C° 0 mm 1 mps 741 mmHg 59%
    20:00 +26°C° 0 mm 1 mps 742 mmHg 60%
    21:00 +26°C° 0 mm 1 mps 742 mmHg 60%
    22:00 +25°C° 0 mm 1 mps 742 mmHg 61%
    23:00 +25°C° 0 mm 1 mps 742 mmHg 61%

    Day after tomorrow, 30 July, Sunday

    Time Temperature Precipitation Wind Pressure Humidity
    00:00 +24°C° 0 mm 1 mps 742 mmHg 61%
    01:00 +24°C° 0 mm 1 mps 742 mmHg 60%
    02:00 +24°C° 0 mm 2 mps 742 mmHg 60%
    03:00 +24°C° 0 mm 2 mps 742 mmHg 60%
    04:00 +23°C° 0 mm 2 mps 742 mmHg 60%
    05:00 +25°C° 0 mm 2 mps 742 mmHg 57%
    06:00 +27°C° 0 mm 1 mps 742 mmHg 53%
    07:00 +29°C° 0 mm 1 mps 742 mmHg 50%
    08:00 +31°C° 0 mm 1 mps 742 mmHg 45%
    09:00 +33°C° 0 mm 1 mps 742 mmHg 40%
    10:00 +35°C° 0 mm 1 mps 742 mmHg 36%
    11:00 +36°C° 0 mm 2 mps 742 mmHg 34%
    12:00 +37°C° 0 mm 2 mps 741 mmHg 33%
    13:00 +37°C° 0 mm 3 mps 741 mmHg 32%
    14:00 +37°C° 0 mm 3 mps 741 mmHg 33%
    15:00 +37°C° 0 mm 3 mps 741 mmHg 35%
    16:00 +36°C° 0 mm 3 mps 740 mmHg 36%
    17:00 +34°C° 0 mm 2 mps 740 mmHg 42%
    18:00 +30°C° 0 mm 2 mps 740 mmHg 48%
    19:00 +28°C° 0 mm 1 mps 740 mmHg 54%
    20:00 +27°C° 0.1 mm 1 mps 741 mmHg 55%
    21:00 +26°C° 0.1 mm 1 mps 741 mmHg 55%
    22:00 +26°C° 0.1 mm 1 mps 741 mmHg 56%
    23:00 +25°C° 0 mm 1 mps 741 mmHg 56%

    31 July, Monday

    Time Temperature Precipitation Wind Pressure Humidity
    00:00 +25°C° 0 mm 1 mps 741 mmHg 56%
    01:00 +25°C° 0 mm 1 mps 741 mmHg 56%
    02:00 +25°C° 0.1 mm 1 mps 741 mmHg 57%
    03:00 +24°C° 0.1 mm 2 mps 741 mmHg 57%
    04:00 +24°C° 0.1 mm 2 mps 741 mmHg 58%
    05:00 +26°C° 0 mm 2 mps 741 mmHg 55%
    06:00 +28°C° 0 mm 1 mps 741 mmHg 52%
    07:00 +30°C° 0 mm 1 mps 741 mmHg 49%
    08:00 +32°C° 0 mm 1 mps 741 mmHg 44%
    09:00 +34°C° 0 mm 1 mps 741 mmHg 39%
    10:00 +36°C° 0 mm 1 mps 741 mmHg 34%
    11:00 +37°C° 0 mm 2 mps 741 mmHg 33%
    12:00 +38°C° 0 mm 3 mps 740 mmHg 31%
    13:00 +38°C° 0 mm 3 mps 740 mmHg 30%
    14:00 +38°C° 0.1 mm 3 mps 740 mmHg 32%
    15:00 +38°C° 0.1 mm 3 mps 740 mmHg 34%
    16:00 +37°C° 0.1 mm 3 mps 740 mmHg 35%
    17:00 +35°C° 0 mm 2 mps 740 mmHg 40%
    18:00 +32°C° 0 mm 2 mps 740 mmHg 44%
    19:00 +30°C° 0 mm 1 mps 740 mmHg 49%
    20:00 +29°C° 0.1 mm 2 mps 740 mmHg 51%
    21:00 +28°C° 0.1 mm 2 mps 741 mmHg 52%
    22:00 +27°C° 0.1 mm 2 mps 741 mmHg 54%
    23:00 +26°C° 0 mm 2 mps 741 mmHg 55%

    1 August, Tuesday

    Time Temperature Precipitation Wind Pressure Humidity
    00:00 +26°C° 0 mm 2 mps 741 mmHg 56%
    01:00 +25°C° 0 mm 2 mps 741 mmHg 56%
    02:00 +25°C° 0 mm 2 mps 741 mmHg 56%
    03:00 +25°C° 0 mm 2 mps 741 mmHg 56%
    04:00 +24°C° 0 mm 2 mps 741 mmHg 56%
    05:00 +26°C° 0 mm 2 mps 741 mmHg 53%
    06:00 +28°C° 0 mm 2 mps 741 mmHg 50%
    07:00 +29°C° 0 mm 2 mps 741 mmHg 47%
    08:00 +31°C° 0 mm 2 mps 741 mmHg 42%
    09:00 +35°C° 0 mm 2 mps 741 mmHg 37%
    10:00 +37°C° 0 mm 2 mps 741 mmHg 31%
    11:00 +38°C° 0 mm 2 mps 741 mmHg 29%
    12:00 +38°C° 0 mm 2 mps 741 mmHg 27%
    13:00 +39°C° 0 mm 3 mps 741 mmHg 25%
    14:00 +39°C° 0 mm 3 mps 740 mmHg 26%
    15:00 +39°C° 0 mm 3 mps 740 mmHg 27%
    16:00 +38°C° 0 mm 4 mps 740 mmHg 27%
    17:00 +36°C° 0 mm 3 mps 740 mmHg 33%
    18:00 +33°C° 0 mm 3 mps 740 mmHg 38%
    19:00 +29°C° 0 mm 2 mps 740 mmHg 43%
    20:00 +29°C° 0 mm 2 mps 741 mmHg 43%
    21:00 +28°C° 0 mm 3 mps 741 mmHg 43%
    22:00 +27°C° 0 mm 3 mps 741 mmHg 43%
    23:00 +26°C° 0 mm 3 mps 741 mmHg 44%

    2 August, Wednesday

    Time Temperature Precipitation Wind Pressure Humidity
    00:00 +26°C° 0 mm 3 mps 741 mmHg 46%
    01:00 +25°C° 0 mm 3 mps 741 mmHg 47%
    02:00 +25°C° 0 mm 2 mps 741 mmHg 48%
    03:00 +24°C° 0 mm 2 mps 741 mmHg 50%
    04:00 +24°C° 0 mm 2 mps 741 mmHg 51%
    05:00 +26°C° 0 mm 2 mps 741 mmHg 49%
    06:00 +27°C° 0 mm 2 mps 741 mmHg 47%
    07:00 +29°C° 0 mm 2 mps 741 mmHg 45%
    08:00 +31°C° 0 mm 2 mps 741 mmHg 39%
    09:00 +34°C° 0 mm 2 mps 741 mmHg 34%
    10:00 +37°C° 0 mm 2 mps 741 mmHg 29%
    11:00 +38°C° 0 mm 3 mps 741 mmHg 26%
    12:00 +39°C° 0 mm 3 mps 741 mmHg 24%
    13:00 +40°C° 0 mm 3 mps 740 mmHg 21%
    14:00 +39°C° 0 mm 3 mps 740 mmHg 22%
    15:00 +39°C° 0 mm 3 mps 740 mmHg 23%
    16:00 +40°C° 0 mm 4 mps 740 mmHg 23%
    17:00 +36°C° 0 mm 3 mps 740 mmHg 28%
    18:00 +33°C° 0 mm 3 mps 740 mmHg 32%
    19:00 +30°C° 0 mm 3 mps 740 mmHg 36%
    20:00 +29°C° 0 mm 3 mps 741 mmHg 36%
    21:00 +27°C° 0 mm 3 mps 741 mmHg 36%
    22:00 +26°C° 0 mm 3 mps 741 mmHg 36%
    23:00 +26°C° 0 mm 3 mps 741 mmHg 38%
    Show more